Météo par heure à Julianpol

Ce jour, 20 Juin, Dimanche

Heure Température Précipitation Vent Pression Humidité
00:00 +21°C° 0 mm 3 m/s 739 mmHg 82%
01:00 +20°C° 0 mm 4 m/s 739 mmHg 82%
02:00 +20°C° 0 mm 4 m/s 739 mmHg 83%
03:00 +19°C° 0 mm 4 m/s 739 mmHg 84%
04:00 +18°C° 0 mm 3 m/s 738 mmHg 86%
05:00 +20°C° 0 mm 4 m/s 739 mmHg 78%
06:00 +21°C° 0 mm 4 m/s 739 mmHg 71%
07:00 +23°C° 0 mm 4 m/s 739 mmHg 64%
08:00 +25°C° 0 mm 4 m/s 739 mmHg 58%
09:00 +27°C° 0 mm 5 m/s 739 mmHg 52%
10:00 +28°C° 0 mm 5 m/s 739 mmHg 46%
11:00 +29°C° 0 mm 4 m/s 739 mmHg 45%
12:00 +30°C° 0 mm 4 m/s 738 mmHg 43%
13:00 +32°C° 0 mm 4 m/s 738 mmHg 41%
14:00 +32°C° 0 mm 4 m/s 738 mmHg 42%
15:00 +30°C° 0 mm 4 m/s 738 mmHg 42%
16:00 +30°C° 0 mm 4 m/s 738 mmHg 43%
17:00 +29°C° 0 mm 4 m/s 737 mmHg 51%
18:00 +27°C° 0 mm 4 m/s 737 mmHg 59%
19:00 +26°C° 0 mm 4 m/s 737 mmHg 66%
20:00 +25°C° 0 mm 4 m/s 737 mmHg 69%
21:00 +22°C° 0 mm 3 m/s 737 mmHg 71%
22:00 +21°C° 0 mm 3 m/s 737 mmHg 73%
23:00 +21°C° 0 mm 3 m/s 736 mmHg 78%

Demain, 21 Juin, Lundi

Heure Température Précipitation Vent Pression Humidité
00:00 +20°C° 0 mm 3 m/s 736 mmHg 82%
01:00 +19°C° 0 mm 3 m/s 736 mmHg 87%
02:00 +19°C° 0 mm 3 m/s 735 mmHg 88%
03:00 +19°C° 0 mm 3 m/s 735 mmHg 89%
04:00 +18°C° 0 mm 3 m/s 735 mmHg 90%
05:00 +20°C° 0 mm 4 m/s 735 mmHg 83%
06:00 +22°C° 0 mm 4 m/s 735 mmHg 77%
07:00 +23°C° 0 mm 5 m/s 735 mmHg 70%
08:00 +26°C° 0 mm 4 m/s 735 mmHg 64%
09:00 +28°C° 0 mm 4 m/s 735 mmHg 57%
10:00 +29°C° 0 mm 4 m/s 735 mmHg 51%
11:00 +30°C° 0 mm 3 m/s 735 mmHg 48%
12:00 +31°C° 0 mm 3 m/s 735 mmHg 45%
13:00 +32°C° 0 mm 2 m/s 735 mmHg 42%
14:00 +32°C° 0 mm 2 m/s 735 mmHg 42%
15:00 +33°C° 0 mm 3 m/s 734 mmHg 42%
16:00 +33°C° 0 mm 3 m/s 734 mmHg 42%
17:00 +31°C° 0 mm 3 m/s 734 mmHg 49%
18:00 +29°C° 0 mm 3 m/s 734 mmHg 56%
19:00 +27°C° 0 mm 3 m/s 734 mmHg 64%
20:00 +25°C° 0.9 mm 4 m/s 735 mmHg 73%
21:00 +22°C° 0.9 mm 4 m/s 735 mmHg 83%
22:00 +20°C° 0.9 mm 5 m/s 736 mmHg 92%
23:00 +20°C° 1.2 mm 4 m/s 735 mmHg 93%

Après-demain, 22 Juin, Mardi

Heure Température Précipitation Vent Pression Humidité
00:00 +19°C° 1.2 mm 3 m/s 735 mmHg 94%
01:00 +19°C° 1.2 mm 2 m/s 735 mmHg 95%
02:00 +19°C° 0.1 mm 2 m/s 735 mmHg 95%
03:00 +19°C° 0.1 mm 2 m/s 735 mmHg 95%
04:00 +19°C° 0.1 mm 2 m/s 736 mmHg 95%
05:00 +20°C° 0 mm 2 m/s 736 mmHg 91%
06:00 +21°C° 0 mm 2 m/s 736 mmHg 86%
07:00 +23°C° 0 mm 2 m/s 737 mmHg 82%
08:00 +24°C° 0 mm 2 m/s 737 mmHg 75%
09:00 +26°C° 0 mm 2 m/s 737 mmHg 68%
10:00 +27°C° 0 mm 2 m/s 737 mmHg 62%
11:00 +28°C° 0 mm 2 m/s 737 mmHg 59%
12:00 +29°C° 0 mm 2 m/s 737 mmHg 57%
13:00 +30°C° 0 mm 2 m/s 737 mmHg 54%
14:00 +30°C° 0 mm 2 m/s 737 mmHg 54%
15:00 +30°C° 0 mm 2 m/s 737 mmHg 55%
16:00 +30°C° 0 mm 2 m/s 737 mmHg 55%
17:00 +28°C° 0.1 mm 2 m/s 737 mmHg 60%
18:00 +27°C° 0.1 mm 2 m/s 737 mmHg 66%
19:00 +26°C° 0.1 mm 2 m/s 737 mmHg 71%
20:00 +25°C° 0.1 mm 2 m/s 737 mmHg 76%
21:00 +24°C° 0.1 mm 3 m/s 737 mmHg 81%
22:00 +21°C° 0.1 mm 3 m/s 738 mmHg 86%
23:00 +21°C° 0.1 mm 3 m/s 737 mmHg 86%

23 Juin, Mercredi

Heure Température Précipitation Vent Pression Humidité
00:00 +21°C° 0.1 mm 3 m/s 737 mmHg 86%
01:00 +20°C° 0.1 mm 2 m/s 737 mmHg 86%
02:00 +20°C° 0.2 mm 2 m/s 737 mmHg 87%
03:00 +20°C° 0.2 mm 2 m/s 737 mmHg 88%
04:00 +19°C° 0.2 mm 2 m/s 737 mmHg 89%
05:00 +20°C° 0.6 mm 2 m/s 737 mmHg 87%
06:00 +21°C° 0.6 mm 2 m/s 738 mmHg 86%
07:00 +23°C° 0.6 mm 2 m/s 738 mmHg 85%
08:00 +24°C° 0.1 mm 3 m/s 738 mmHg 79%
09:00 +26°C° 0.1 mm 3 m/s 738 mmHg 72%
10:00 +28°C° 0.1 mm 3 m/s 739 mmHg 66%
11:00 +28°C° 0 mm 4 m/s 739 mmHg 62%
12:00 +29°C° 0 mm 4 m/s 739 mmHg 58%
13:00 +30°C° 0 mm 4 m/s 739 mmHg 54%
14:00 +29°C° 0 mm 4 m/s 740 mmHg 55%
15:00 +29°C° 0 mm 5 m/s 740 mmHg 55%
16:00 +29°C° 0 mm 5 m/s 740 mmHg 56%
17:00 +27°C° 0 mm 5 m/s 740 mmHg 63%
18:00 +25°C° 0 mm 5 m/s 741 mmHg 71%
19:00 +22°C° 0 mm 6 m/s 741 mmHg 78%
20:00 +20°C° 0 mm 5 m/s 741 mmHg 83%
21:00 +19°C° 0 mm 4 m/s 742 mmHg 88%
22:00 +18°C° 0 mm 3 m/s 742 mmHg 92%
23:00 +17°C° 0 mm 3 m/s 742 mmHg 94%

24 Juin, Jeudi

Heure Température Précipitation Vent Pression Humidité
00:00 +16°C° 0 mm 2 m/s 742 mmHg 95%
01:00 +16°C° 0 mm 2 m/s 742 mmHg 97%
02:00 +15°C° 0 mm 2 m/s 742 mmHg 97%
03:00 +15°C° 0 mm 2 m/s 742 mmHg 97%
04:00 +15°C° 0 mm 2 m/s 742 mmHg 97%
05:00 +16°C° 0 mm 2 m/s 742 mmHg 91%
06:00 +17°C° 0 mm 2 m/s 742 mmHg 85%
07:00 +18°C° 0 mm 2 m/s 742 mmHg 79%
08:00 +19°C° 0.4 mm 2 m/s 742 mmHg 78%
09:00 +20°C° 0.4 mm 2 m/s 742 mmHg 77%
10:00 +21°C° 0.4 mm 2 m/s 742 mmHg 76%
11:00 +21°C° 0.6 mm 2 m/s 742 mmHg 77%
12:00 +22°C° 0.6 mm 1 m/s 742 mmHg 78%
13:00 +22°C° 0.6 mm 1 m/s 742 mmHg 78%
14:00 +21°C° 0.1 mm 2 m/s 742 mmHg 77%
15:00 +23°C° 0.1 mm 2 m/s 742 mmHg 75%
16:00 +24°C° 0.1 mm 3 m/s 741 mmHg 73%
17:00 +22°C° 0.2 mm 3 m/s 741 mmHg 78%
18:00 +20°C° 0.2 mm 3 m/s 741 mmHg 82%
19:00 +19°C° 0.2 mm 3 m/s 741 mmHg 87%
20:00 +19°C° 0 mm 3 m/s 741 mmHg 88%
21:00 +18°C° 0 mm 3 m/s 742 mmHg 89%
22:00 +18°C° 0 mm 3 m/s 742 mmHg 90%
23:00 +17°C° 0 mm 3 m/s 742 mmHg 90%

25 Juin, Vendredi

Heure Température Précipitation Vent Pression Humidité
00:00 +17°C° 0 mm 3 m/s 742 mmHg 91%
01:00 +17°C° 0 mm 3 m/s 742 mmHg 91%
02:00 +17°C° 0 mm 3 m/s 742 mmHg 92%
03:00 +16°C° 0 mm 2 m/s 742 mmHg 92%
04:00 +16°C° 0 mm 2 m/s 741 mmHg 93%
05:00 +16°C° 0 mm 2 m/s 742 mmHg 91%
06:00 +17°C° 0 mm 3 m/s 742 mmHg 90%
07:00 +17°C° 0 mm 3 m/s 742 mmHg 88%
08:00 +18°C° 0 mm 3 m/s 742 mmHg 85%
09:00 +18°C° 0 mm 3 m/s 742 mmHg 82%
10:00 +19°C° 0 mm 3 m/s 742 mmHg 79%
11:00 +20°C° 0.1 mm 3 m/s 742 mmHg 76%
12:00 +20°C° 0.1 mm 3 m/s 742 mmHg 73%
13:00 +21°C° 0.1 mm 2 m/s 742 mmHg 70%
14:00 +21°C° 0.1 mm 2 m/s 741 mmHg 70%
15:00 +21°C° 0.1 mm 2 m/s 741 mmHg 70%
16:00 +21°C° 0.1 mm 2 m/s 741 mmHg 70%
17:00 +21°C° 0.1 mm 2 m/s 741 mmHg 72%
18:00 +20°C° 0.1 mm 2 m/s 740 mmHg 75%
19:00 +20°C° 0.1 mm 2 m/s 740 mmHg 78%
20:00 +19°C° 0.2 mm 2 m/s 740 mmHg 81%
21:00 +18°C° 0.2 mm 2 m/s 740 mmHg 85%
22:00 +17°C° 0.2 mm 2 m/s 741 mmHg 89%
23:00 +17°C° 0.1 mm 2 m/s 741 mmHg 90%
Voir plus

Nous avons besoin de votre consentement

Meteoprog et ses fournisseurs de services peuvent stocker et accéder à des données personnelles telles que des cookies, des identifiants d'appareils ou d'autres technologies similaires sur votre appareil et traiter ces données pour personnaliser le contenu et les publicités, ainsi que pour fournir des fonctionnalités de médias sociaux et analyser le trafic.

  • Stocker et/ou accéder à des informations sur votre appareil

    Des cookies, des identifiants d'appareils ou d'autres informations peuvent être stockés ou accessibles sur votre appareil aux fins indiquées ci-dessus.

  • Annonces et contenus personnalisés, mesure des annonces et des contenus, connaissance de l'audience et développement de produits

    Les annonces et le contenu peuvent être personnalisés en fonction d'un profil. D'autres données peuvent être ajoutées pour mieux personnaliser les annonces et le contenu. Les performances des publicités et du contenu peuvent être mesurées. Il est possible d'obtenir des informations sur le public qui a vu les publicités et le contenu. Ces données peuvent être utilisées pour développer ou améliorer l'expérience de l'utilisateur, les systèmes et les logiciels.

En cliquant sur "J'accepte", vous autorisez l'utilisation de cookies, des identifiants d'appareils, des balises web ou d'autres technologies similaires. Vos paramètres peuvent être modifiés dans le navigateur de votre appareil.

Dans certains cas, des intérêts légitimes peuvent être invoqués plutôt qu'un consentement. Vous pouvez en savoir plus à ce sujet dans notre Politique de confidentialité et de cookies.